Starlink 3626

operational
NORAD ID: 51792 Int'l Des: 2022-017 Owner: SPXS Country: US Constellation: starlink
LEOCIRCULAR

About Starlink 3626

Description loading...

Live Position

Loading 3D Globe...

Upcoming Passes

Altitude History

Altitude vs Time

uPlot chart will show altitude changes over time

Two-Line Element Set

1 51792U 22017AA 25260.68181834 -.00001200 00000-0 -57312-4 0 9997
2 51792 53.2189 45.7820 0000812 97.2660 262.8424 15.08841518197850
Epoch: Sep 17, 2025 • Age: 20 hours

Current Status

Altitude 549.2 km
Velocity 7.59 km/s
Sub-Earth Point -29.78°S, 173.86°W
Launch Date Feb 25, 2022
Age 3.5 years
Type internet

Technical Details

Classification Payload
Mass 297.00 kg
Dry Mass 275.00 kg
Total Mass 297.00 kg
Length 0.20 m
Diameter 2.80 m
Span 9.00 m
Shape Box + pan
Manufacturer SPXS
Bus Type Starlink
Phase Status In Orbit
Owner/State SPXS/US

Large Constellations

Loading constellations...